Location: Chillicothe
(39.7950°N, 93.5520°W)
Time: 23:30:32
(UTC-05:00)

Tiros 1 despin weight - All Passes

Search period start: 23 October 2019 00:00
Search period end: 02 November 2019 00:00
Orbit: 593 x 643 km, 48.2° (Epoch: 22 October)

Date Brightness Start Highest point End Pass type
(mag) Time Alt. Az. Time Alt. Az. Time Alt. Az.
23 Oct - 00:54:12 10° WSW 00:58:50 90° NW 01:03:33 10° ENE night (unlit)
23 Oct - 02:36:35 10° WNW 02:40:51 34° NNW 02:45:08 10° NE night (unlit)
23 Oct - 04:19:09 10° NW 04:23:19 31° N 04:27:30 10° ENE visible
23 Oct - 06:00:48 10° NW 06:05:30 67° NNE 06:10:09 10° ESE visible
23 Oct - 07:42:51 10° WNW 07:46:49 28° SW 07:50:45 10° SSE daylight
23 Oct - 23:29:52 10° SSW 23:34:03 35° SE 23:38:17 10° ENE night (unlit)
24 Oct - 01:10:56 10° WSW 01:15:30 56° NNW 01:20:08 10° NE night (unlit)
24 Oct - 02:53:39 10° WNW 02:57:46 29° N 03:01:54 10° ENE night (unlit)
24 Oct - 04:35:51 10° NW 04:40:13 37° NNE 04:44:35 10° E visible
24 Oct - 06:17:24 10° WNW 06:22:06 74° SW 06:26:45 10° SE visible
24 Oct - 08:00:38 10° W 08:03:03 14° SW 08:05:29 10° SSW daylight
24 Oct - 22:07:56 10° SSE 22:09:37 12° SE 22:11:18 10° ESE night (unlit)
24 Oct - 23:45:55 10° SW 23:50:29 66° SE 23:55:07 10° ENE night (unlit)
25 Oct - 01:27:55 10° W 01:32:18 39° NNW 01:36:43 10° NE night (unlit)
25 Oct - 03:10:37 10° WNW 03:14:43 29° N 03:18:50 10° ENE visible
25 Oct - 04:52:26 10° NW 04:57:02 52° NNE 05:01:36 10° E visible
25 Oct - 06:34:11 10° WNW 06:38:34 40° SW 06:42:55 10° SSE visible
25 Oct - 22:22:09 10° S 22:25:49 24° SE 22:29:32 10° E night (unlit)
26 Oct - 00:02:27 10° WSW 00:07:03 73° NNW 00:11:44 10° ENE night (unlit)
26 Oct - 01:45:01 10° WNW 01:49:11 31° N 01:53:23 10° NE night (unlit)
26 Oct - 03:27:25 10° NW 03:31:40 33° NNE 03:35:54 10° ENE visible
26 Oct - 05:09:00 10° WNW 05:13:43 82° NNE 05:18:24 10° ESE visible
26 Oct - 06:51:23 10° W 06:54:53 21° SW 06:58:23 10° S visible
26 Oct - 22:37:48 10° SSW 22:42:10 46° SE 22:46:36 10° ENE night (unlit)
27 Oct - 00:19:19 10° W 00:23:46 47° NNW 00:28:18 10° NE night (unlit)
27 Oct - 02:02:03 10° WNW 02:06:07 29° N 02:10:13 10° ENE night (unlit)
27 Oct - 03:44:03 10° NW 03:48:31 42° NNE 03:52:59 10° E visible
27 Oct - 05:25:39 10° WNW 05:30:16 58° SW 05:34:51 10° SE visible
27 Oct - 07:10:47 10° SW 07:11:05 10° SW 07:11:23 10° SW visible
27 Oct - 21:14:51 10° S 21:17:39 16° SE 21:20:27 10° E night (unlit)
27 Oct - 22:54:05 10° SW 22:58:39 84° SSE 23:03:20 10° ENE night (unlit)
28 Oct - 00:36:21 10° W 00:40:36 35° NNW 00:44:55 10° NE night (unlit)
28 Oct - 02:18:56 10° NW 02:23:04 30° N 02:27:13 10° ENE night (unlit)
28 Oct - 04:00:37 10° NW 04:05:17 62° NNE 04:09:56 10° ESE visible
28 Oct - 05:42:33 10° WNW 05:46:40 31° SW 05:50:45 10° SSE visible
28 Oct - 21:29:54 10° SSW 21:33:54 31° SE 21:37:59 10° ENE night (unlit)
28 Oct - 23:10:46 10° WSW 23:15:18 59° NNW 23:19:55 10° NE night (unlit)
29 Oct - 00:53:26 10° WNW 00:57:31 30° N 01:01:39 10° NE night (unlit)
29 Oct - 02:35:40 10° NW 02:39:59 36° NNE 02:44:19 10° E night (unlit)
29 Oct - 04:17:12 10° WNW 04:21:55 81° SSW 04:26:36 10° SE visible
29 Oct - 06:00:07 10° W 06:02:56 16° SW 06:05:45 10° SSW visible
29 Oct - 20:09:05 10° SE 20:09:31 10° SE 20:09:57 10° ESE visible
29 Oct - 21:45:51 10° SW 21:50:19 60° SE 21:54:52 10° ENE night (unlit)
29 Oct - 23:27:43 10° W 23:32:04 40° NNW 23:36:29 10° NE night (unlit)
30 Oct - 01:10:25 10° WNW 01:14:28 29° N 01:18:33 10° ENE night (unlit)
30 Oct - 02:52:15 10° NW 02:56:48 48° NNE 03:01:21 10° E night (unlit)
30 Oct - 04:33:56 10° WNW 04:38:24 44° SW 04:42:50 10° SSE visible
30 Oct - 20:22:17 10° S 20:25:42 21° SE 20:29:10 10° E visible
30 Oct - 22:02:18 10° WSW 22:06:52 79° NNW 22:11:31 10° ENE night (unlit)
30 Oct - 23:44:47 10° WNW 23:48:56 32° N 23:53:08 10° NE night (unlit)
31 Oct - 01:27:13 10° NW 01:31:24 32° N 01:35:37 10° ENE night (unlit)
31 Oct - 03:08:48 10° WNW 03:13:30 76° NNE 03:18:12 10° ESE night (unlit)
31 Oct - 04:51:02 10° W 04:54:44 23° SW 04:58:27 10° S visible
31 Oct - 20:37:47 10° SSW 20:42:01 41° SE 20:46:20 10° ENE visible
31 Oct - 22:19:07 10° W 22:23:33 49° NNW 22:28:05 10° NE night (unlit)
01 Nov - 00:01:50 10° WNW 00:05:52 29° N 00:09:56 10° ENE night (unlit)
01 Nov - 01:43:53 10° NW 01:48:16 40° NNE 01:52:42 10° E night (unlit)
01 Nov - 03:25:26 10° WNW 03:30:04 63° SW 03:34:42 10° SE night (unlit)
01 Nov - 05:09:23 10° WSW 05:10:57 12° SW 05:12:32 10° SSW night (unlit)
01 Nov - 19:15:10 10° SSE 19:17:32 14° SE 19:19:55 10° E visible
01 Nov - 20:53:58 10° SW 20:58:29 77° SE 21:03:05 10° ENE visible
01 Nov - 22:36:08 10° W 22:40:22 36° NNW 22:44:40 10° NE night (unlit)
